Location: Pcim
(49.7500°N, 19.9670°E)
Time: 20:54:21
(UTC+02:00)

MOZHAYETS 4 - Pass Details

Date: 29 April 2024
Orbit: 652 x 670 km, 98.3° (Epoch: 20 May)

Event Time Altitude Azimuth Distance (km) Brightness Sun altitude
Rises 03:21:20 0° 151° (SSE) 3,008 10.9 -16.3°
Reaches altitude 10° 03:23:35 10° 147° (SSE) 2,099 10.1 -16.0°
Maximum altitude 03:28:03 54° 70° (ENE) 815 8.5 -15.5°
Drops below altitude 10° 03:32:33 10° 354° (N) 2,110 10.8 -15.0°
Sets 03:34:49 0° 350° (N) 3,026 11.6 -14.8°
